Regional Weather Roundup
Issued by NWS Sioux Falls, SD

Home | Current Version | Previous Version | Text Only | Print | Product List | Glossary On
Versions: 1 2 3 4 5 6 7 8 9 10 11 12 13 14 15 16 17 18 19 20 21 22 23 24 25 26 27 28 29 30 31 32 33 34 35 36 37 38 39 40 41 42 43 44 45 46 47 48 49 50
726
ASUS43 KFSD 162302
RWRFSD

WEATHER ROUNDUP FOR SE SOUTH DAKOTA/SW MINNESOTA/NW IOWA
NATIONAL WEATHER SERVICE SIOUX FALLS SD
500 PM CST MON JAN 16 2017

NOTE: "FAIR" INDICATES FEW OR NO CLOUDS BELOW 12,000 FEET WITH NO
SIGNIFICANT WEATHER AND OR OBSTRUCTIONS TO VISIBILITY.


SDZ038>040-050-052>070-170000-
SOUTHEAST SOUTH DAKOTA

CITY           SKY/WX    TMP DP  RH WIND       PRES   REMARKS
BROOKINGS      CLOUDY    28  23  81 NW6       29.98  WCI  22
CHAMBERLAIN    CLOUDY    23  15  70 W10       30.06R WCI  12
HURON          CLOUDY    18  11  74 NW7       30.05R WCI   9
MADISON          N/A     32  28  86 N8          N/A  WCI  25
MITCHELL       CLOUDY    25  17  72 NW10      30.04R WCI  15
SIOUX FALLS    FRZ RAIN  31  31 100 CALM      29.98R FOG
WINNER         FAIR      27  16  63 NW10      30.05R WCI  17
YANKTON        CLOUDY    30  27  86 CALM      29.98S
$$

MNZ071-072-080-081-089-090-097-098-170000-
SOUTHWEST MINNESOTA

CITY           SKY/WX    TMP DP  RH WIND       PRES   REMARKS
FAIRMONT       MIX PCPN  31  30  96 NE8       29.97S FOG     WCI  23
JACKSON        DRIZZLE   30  30 100 NE8       29.96S WCI  23
MARSHALL       CLOUDY    28  25  88 N3        30.02R
MONTEVIDEO     CLOUDY    27  23  86 NE3       30.05R
PIPESTONE      CLOUDY    30  28  93 NE7       29.96S WCI  23
REDWOOD FALLS  CLOUDY    31  27  85 E5        30.01S FOG     WCI  26
TRACY          CLOUDY    30  28  94 NE7       30.00R FOG     WCI  23
WINDOM         MIX PCPN  30  30 100 N8        29.97S WCI  23
$$

IAZ001>003-012>014-020>022-031-032-NEZ013-014-SDZ071-170000-
NORTHWEST IOWA

CITY           SKY/WX    TMP DP  RH WIND       PRES   REMARKS
CHEROKEE       MIX PCPN  32  32 100 NE5       29.94S WCI  27
DENISON        CLOUDY    32  32 100 NE7G14    29.89R FOG     WCI  26
ESTHERVILLE    FRZ RAIN  30  30 100 NE10      29.94F FOG     WCI  21
LE MARS        LGT RAIN  32  32 100 N7G14     29.96S WCI  26
ORANGE CITY    MIX PCPN  32  32 100 NE6       29.94S WCI  26
SHELDON        LGT RAIN  32  32 100 NE13      29.93S WCI  22
SIOUX CITY     CLOUDY    34  32  92 N9        29.95S WCI  27
SPENCER        FRZ RAIN  32  30  92 NE13      29.94F WCI  22
STORM LAKE     LGT RAIN  32  32 100 NE12      29.92S WCI  23
$$

ABBREVIATIONS USED IN REMARKS
   TC - TEMPERATURE IN CELSIUS
  WCI - WIND CHILL INDEX
   HX - HEAT INDEX
  VSB - VISIBILITY





USA.gov is the U.S. government's official web portal to all federal, state and local government web resources and services.